This is the latest recevied weather packets stored in our database for station/object G1OCN-WX. If no packets are shown the sender has not sent any weather packets the latest 1 day(s).
| Time | Temp. | Humidity | Pressure | Rain* | Wind** | Luminosity | Snow |
|---|---|---|---|---|---|---|---|
| 1777979914 | 13.89° C | 67% | 1013.3 hPa | 0 mm | 4.02 m/s, 36° | - | - |
| 1777979824 | 13.89° C | 67% | 1013.2 hPa | 0 mm | 4.02 m/s, 44° | - | - |
| 1777979764 | 13.89° C | 67% | 1013.2 hPa | 0 mm | 3.13 m/s, 62° | - | - |
| 1777979674 | 13.89° C | 68% | 1013.3 hPa | 0 mm | 3.13 m/s, 54° | - | - |
| 1777979614 | 13.89° C | 67% | 1013.3 hPa | 0 mm | 3.58 m/s, 36° | - | - |
| 1777979524 | 13.89° C | 67% | 1013.3 hPa | 0 mm | 3.13 m/s, 35° | - | - |
| 1777979464 | 13.89° C | 68% | 1013.3 hPa | 0 mm | 4.02 m/s, 1° | - | - |
| 1777979374 | 13.89° C | 68% | 1013.3 hPa | 0 mm | 3.13 m/s, 28° | - | - |
| 1777979314 | 13.89° C | 67% | 1013.3 hPa | 0 mm | 3.13 m/s, 25° | - | - |
| 1777979224 | 13.89° C | 68% | 1013.3 hPa | 0 mm | 3.13 m/s, 24° | - | - |
| 1777979164 | 13.89° C | 68% | 1013.3 hPa | 0 mm | 3.13 m/s, 53° | - | - |
| 1777979104 | 13.89° C | 67% | 1013.3 hPa | 0 mm | 3.13 m/s, 54° | - | - |
| 1777979014 | 13.89° C | 68% | 1013.2 hPa | 0 mm | 3.58 m/s, 51° | - | - |
| 1777978954 | 13.89° C | 67% | 1013.2 hPa | 0 mm | 4.02 m/s, 25° | - | - |
| 1777978894 | 13.89° C | 67% | 1013.2 hPa | 0 mm | 4.47 m/s, 44° | - | - |
| 1777978834 | 13.89° C | 67% | 1013.2 hPa | 0 mm | 4.02 m/s, 42° | - | - |
| 1777978774 | 13.89° C | 67% | 1013.2 hPa | 0 mm | 4.47 m/s, 20° | - | - |
| 1777978714 | 13.89° C | 67% | 1013.2 hPa | 0 mm | 4.02 m/s, 28° | - | - |
| 1777978654 | 13.89° C | 67% | 1013.2 hPa | 0 mm | 4.02 m/s, 32° | - | - |
| 1777978594 | 13.89° C | 67% | 1013.2 hPa | 0 mm | 4.47 m/s, 43° | - | - |
| 1777978533 | 14.44° C | 66% | 1013.3 hPa | 0 mm | 5.81 m/s, 25° | - | - |
| 1777978473 | 14.44° C | 67% | 1013.2 hPa | 0 mm | 3.58 m/s, 29° | - | - |
| 1777978413 | 14.44° C | 67% | 1013.3 hPa | 0 mm | 3.58 m/s, 44° | - | - |
| 1777978353 | 13.89° C | 66% | 1013.3 hPa | 0 mm | 3.58 m/s, 39° | - | - |
| 1777978293 | 13.89° C | 67% | 1013.3 hPa | 0 mm | 4.02 m/s, 53° | - | - |
* Rain latest hour (hover to see other rain measurements)
** Current wind speed in m/s (hover to see current wind gust speed)